loading
DOY 203 | 2024-07-21T10:09:30Z

OBJECT B, 60204

Orbit data source: Space-Track

OBJECT B, 60204 is an American satellite in LEO that was launched on Thu, 04 Jul 2024 UTC via a Firefly Alpha launch vehicle from the Air Force Western Test Range (AFWTR). Unknown objects in Earth's orbit typically refer to objects detected orbiting the Earth but have not yet been identified or cataloged. These objects could be anything from previously untracked satellites, spent rocket stages, debris from satellite collisions, or even natural meteoroids temporarily captured by Earth's gravity.

Loading next visibility...
Loading greatness...
OBJECT B details
NORAD ID60204
COSPAR ID
2024-125B
Orbit
LEO
Last TLE update4 days ago
Origin
Flag of USARC/SJSU (US)
ManufacturerARC
BusCubesat 6UXL
MotorUnknown
Mass10 kg wet, ~10 kg dry
Launch date (UTC)
2024-07-04 (2 weeks ago)
Launch vehicle
Firefly Alpha
Launch site
Air Force Western Test Range (AFWTR)
Object typeUnknown
Radar Cross SectionSmall (<0.1 m²)
Predictive object data (real-time)
Latitude-49.98114°
Longitude-130.33492°
Altitude509.786 km
Speed7.614 km/s
Apparent Right ascension13h 01m 28s
Apparent Declination-49° 04' 41"
Sunlit
Object is in full shadow
Predictive observer data (real-time)
Local Sidereal Time23:07:42
Azimuth236.059° WSW
Elevation-67.911°
Doppler factor1
Orbital elements
Apogee513.934 km
Perigee483.408 km
Semi-major axis6,876.808 km
Eccentricity0.0022195
Inclination97.322°
RAAN51.71°
Arg. of periapsis199.981°
True anomaly160.14243°
Mean anomaly160.0559°
Mean motion3.80595 °/min
BSTAR0.001031
Period94.59 mins
Definitive object data (Epoch: 2024-07-17T04:07:47.055Z)
Latitude-0.00005°
Longitude54.28353°
Altitude519.167 km
Speed7.596 km/s
True Right ascension03h 26m 50s
True Declination0° 00' 00"
Sunlit
Object was in daylight at TLE epoch
TLE from 4 days ago
0 OBJECT B
1 60204U 24125B   24199.17207240  .00023247  00000-0  10310-2 0  9999
2 60204  97.3220  51.7100 0022195 199.9810 160.0559 15.21368833  1970
Epoch: 2024-07-17T04:07Z
No data available

OBJECT B Visibility forecast

Observer location: 39.9160978°, -105.1181434

OBJECT B is not visible in the next 10 days
Span
Click to sort rows by Start time (UTC) header in descending order
Start Az.
Max El. time (UTC)
Max El. Az.
Max El.
End time (UTC)
End Az.